EW8410 Weather Reports


time (UTC)temp
C
wind
direction
speed
KPH
gust
KPH
rain 1hr
cm
rain 24hr
cm
rain mn
cm
humidity
%
barometer
mb
20260503024556 9 197 0.0 0.0 0.00 0.00 0.00 91 1008.6
20260503023106 9 197 0.0 3.2 0.00 0.00 0.00 91 1008.7
20260503021558 9 198 0.0 3.2 0.00 0.00 0.00 91 1008.9
20260503020058 9 147 0.0 3.2 0.00 0.00 0.00 91 1008.9
20260503014553 9 147 0.0 0.0 0.00 0.00 0.00 91 1009.1
20260503013055 9 147 0.0 3.2 0.00 0.00 0.00 91 1009.1
20260503011612 9 70 0.0 3.2 0.00 0.00 0.00 91 1009.1
20260503010055 9 198 0.0 3.2 0.00 0.00 0.00 90 1009.0
20260503004551 9 198 0.0 3.2 0.00 0.00 0.00 90 1008.8
20260503003049 9 198 0.0 3.2 0.00 0.00 0.00 90 1008.8
20260503001547 9 198 0.0 3.2 0.00 0.00 0.00 89 1008.7
20260502234558 10 198 0.0 3.2 0.00 0.00 0.00 89 1009.0
20260502233045 10 198 0.0 3.2 0.00 0.00 0.00 88 1008.9
20260502231546 10 198 0.0 0.0 0.00 0.00 0.00 88 1008.9
20260502230044 10 198 0.0 3.2 0.00 0.00 0.00 88 1008.9
20260502224543 10 198 0.0 0.0 0.00 0.00 0.00 88 1009.0
20260502223044 10 198 0.0 3.2 0.00 0.00 0.00 87 1008.9
20260502221541 10 217 0.0 3.2 0.00 0.00 0.00 88 1008.9
20260502220048 10 288 0.0 3.2 0.00 0.00 0.00 88 1008.7
20260502214539 10 169 0.0 3.2 0.00 0.00 0.00 88 1008.7
20260502213041 10 177 0.0 3.2 0.00 0.00 0.00 88 1008.7
20260502211539 10 237 0.0 3.2 0.00 0.00 0.00 87 1008.8
20260502210035 10 179 1.6 6.4 0.00 0.00 0.00 87 1008.8
20260502204536 10 146 0.0 4.8 0.00 0.00 0.00 86 1009.1
20260502203032 10 90 0.0 8.0 0.00 0.00 0.00 85 1009.0
20260502201529 10 151 1.6 9.7 0.00 0.00 0.00 85 1009.1
20260502200030 10 176 3.2 6.4 0.00 0.00 0.00 85 1009.2
20260502194525 10 178 1.6 9.7 0.00 0.00 0.00 85 1009.4
20260502193022 10 138 1.6 9.7 0.00 0.00 0.00 84 1009.7
20260502191521 10 65 1.6 11.3 0.00 0.00 0.00 84 1009.8
20260502190020 10 194 1.6 6.4 0.00 0.00 0.00 84 1010.0
20260502184517 11 171 0.0 14.5 0.00 0.00 0.00 82 1010.2
20260502183015 11 182 3.2 8.0 0.00 0.00 0.00 81 1010.3
20260502181513 11 171 4.8 12.9 0.00 0.00 0.00 79 1010.3
20260502163010 11 190 4.8 11.3 0.00 0.00 0.00 77 1010.3
20260502161501 11 169 6.4 11.3 0.00 0.00 0.00 77 1010.5
20260502151612 11 168 1.6 9.7 0.00 0.00 0.00 75 1011.1
20260502123042 10 285 0.0 6.4 0.00 0.00 0.00 80 1011.4
20260502121541 10 234 1.6 9.7 0.00 0.00 0.00 81 1011.3
20260502114539 10 215 1.6 9.7 0.00 0.00 0.00 82 1011.1
20260502113047 9 203 0.0 9.7 0.00 0.00 0.00 82 1011.1
20260502111535 9 156 3.2 9.7 0.00 0.00 0.00 81 1010.9
20260502110035 9 164 0.0 6.4 0.00 0.00 0.00 81 1010.9
20260502104529 9 105 0.0 9.7 0.00 0.00 0.00 81 1011.0
20260502103027 8 185 0.0 9.7 0.00 0.00 0.00 81 1010.8
20260502101527 8 105 1.6 8.0 0.00 0.00 0.00 80 1010.6
20260502091519 8 179 0.0 3.2 0.00 0.00 0.00 78 1010.5
20260502071508 8 242 0.0 6.4 0.00 0.00 0.00 70 1010.3
20260502070015 9 195 0.0 3.2 0.00 0.00 0.00 69 1010.5
20260502064505 9 144 0.0 3.2 0.00 0.00 0.00 68 1010.3
20260502063002 10 85 0.0 3.2 0.00 0.00 0.00 68 1010.5
20260502061601 10 221 0.0 3.2 0.00 0.00 0.00 68 1010.7
20260502060058 10 100 0.0 4.8 0.00 0.00 0.00 67 1010.6
20260502054612 10 109 0.0 6.4 0.00 0.00 0.00 68 1010.6
20260502053055 10 227 1.6 8.0 0.00 0.00 0.00 68 1010.9
20260502051554 10 193 1.6 8.0 0.00 0.00 0.00 69 1010.9
20260502050051 10 80 1.6 9.7 0.00 0.00 0.00 69 1010.8
20260502044555 10 184 3.2 11.3 0.00 0.00 0.00 67 1010.8
20260502043050 10 234 0.0 9.7 0.00 0.00 0.00 67 1010.8
20260502041558 10 194 0.0 8.0 0.00 0.00 0.00 67 1010.8
20260502040047 10 99 1.6 8.0 0.00 0.00 0.00 67 1010.9
20260502034548 10 227 1.6 4.8 0.00 0.00 0.00 68 1010.8
20260502033045 10 136 0.0 4.8 0.00 0.00 0.00 69 1010.9
20260502031550 10 224 0.0 8.0 0.00 0.00 0.00 69 1010.9
20260502030043 10 76 0.0 6.4 0.00 0.00 0.00 68 1010.8